Appleton, MN

4:50 PM CDT on March 28, 2017 (GMT -0500)
Appleton Municipal

Weather History for KAQP - January, 2015

Change the Weather History Date:

Wednesday, January 28, 2015

  Actual Average Record
Temperature  
Mean Temperature 34 °F -  
Max Temperature 35 °F 20 °F 41 °F (2008)
Min Temperature 33 °F 4 °F -20 °F (1997)
Degree Days  
Heating Degree Days 31    
Moisture  
Dew Point 31 °F    
Average Humidity 88    
Maximum Humidity 93    
Minimum Humidity 81    
Precipitation  
Precipitation 0.00 in - - ()
Sea Level Pressure  
Sea Level Pressure 29.85 in    
Wind  
Wind Speed 12 mph (ESE)    
Max Wind Speed 29 mph    
Max Gust Speed 36 mph    
Visibility 5 miles    
Events Fog    
Averages and records for this station are not official NWS values.
T = Trace of Precipitation, MM = Missing Value Source: NWS Daily Summary

Daily Weather History Graph

Daily Weather History Graph

Search for Another Location

Airport or City:

Trip Planner

Search our weather history database for the weather conditions in past years. The results will help you decide how hot, cold, wet, or windy it might be!

Date:

Astronomy

Jan. 28, 2015 Rise Set
Actual Time 7:48 AM CST 5:25 PM CST
Civil Twilight 7:17 AM CST 5:57 PM CST
Nautical Twilight 6:41 AM CST 6:32 PM CST
Astronomical Twilight 6:06 AM CST 7:07 PM CST
Moon 12:31 PM CST 2:20 AM CST
Length of Visible Light 10h 39m
Length of Day
9h 36m
Waxing Gibbous, 66% of the Moon is Illuminated
Jan 28
Waxing Gibbous
Feb 3
Full
Feb 11
Last Quarter
Feb 18
New
Feb 25
First Quarter

Hourly Weather History & Observations

Time (CST) Temp. Windchill Dew Point Humidity Pressure Visibility Wind Dir Wind Speed Gust Speed Precip Events Conditions
12:14 AM 33.8 °F 24.3 °F 30.2 °F 87% 29.95 in 10.0 mi SE 13.8 mph - N/A   Clear
12:34 AM 33.8 °F 24.8 °F 30.2 °F 87% 29.95 in 10.0 mi SE 12.7 mph 18.4 mph N/A   Clear
12:55 AM 33.8 °F 24.8 °F 30.2 °F 87% 29.95 in 10.0 mi SE 12.7 mph - N/A   Clear
1:15 AM 33.8 °F 24.3 °F 30.2 °F 87% 29.95 in 7.0 mi SE 13.8 mph - N/A   Clear
1:34 AM 33.8 °F 24.8 °F 30.2 °F 87% 29.94 in 7.0 mi SE 12.7 mph - N/A   Clear
1:54 AM 33.8 °F 25.3 °F 30.2 °F 87% 29.93 in 7.0 mi SE 11.5 mph 19.6 mph N/A   Clear
2:15 AM 33.8 °F 24.3 °F 30.2 °F 87% 29.92 in 7.0 mi SE 13.8 mph - N/A   Clear
2:34 AM 33.8 °F 24.8 °F 30.2 °F 87% 29.91 in 7.0 mi SE 12.7 mph 19.6 mph N/A   Clear
2:54 AM 33.8 °F 24.3 °F 30.2 °F 87% 29.91 in 7.0 mi SE 13.8 mph 19.6 mph N/A   Clear
3:14 AM 33.8 °F 24.3 °F 30.2 °F 87% 29.90 in 7.0 mi SE 13.8 mph - N/A   Scattered Clouds
3:34 AM 33.8 °F 25.3 °F 30.2 °F 87% 29.89 in 7.0 mi SE 11.5 mph 19.6 mph N/A   Scattered Clouds
3:54 AM 33.8 °F 24.8 °F 30.2 °F 87% 29.88 in 7.0 mi SE 12.7 mph 19.6 mph N/A   Scattered Clouds
4:15 AM 33.8 °F 24.8 °F 30.2 °F 87% 29.88 in 7.0 mi SE 12.7 mph 19.6 mph N/A   Scattered Clouds
4:34 AM 33.8 °F 23.9 °F 30.2 °F 87% 29.87 in 7.0 mi SE 15.0 mph 20.7 mph N/A   Mostly Cloudy
4:54 AM 33.8 °F 24.3 °F 30.2 °F 87% 29.86 in 7.0 mi SE 13.8 mph 19.6 mph N/A   Mostly Cloudy
5:14 AM 33.8 °F 24.8 °F 30.2 °F 87% 29.86 in 7.0 mi SE 12.7 mph 19.6 mph N/A   Mostly Cloudy
5:35 AM 33.8 °F 24.3 °F 30.2 °F 87% 29.86 in 7.0 mi SE 13.8 mph 17.3 mph N/A   Mostly Cloudy
5:54 AM 33.8 °F 24.3 °F 30.2 °F 87% 29.85 in 7.0 mi SE 13.8 mph 19.6 mph N/A   Overcast
6:14 AM 33.8 °F 24.8 °F 30.2 °F 87% 29.85 in 7.0 mi SE 12.7 mph 20.7 mph N/A   Overcast
6:34 AM 33.8 °F 24.8 °F 30.2 °F 87% 29.85 in 7.0 mi SE 12.7 mph 20.7 mph N/A   Overcast
6:55 AM 33.8 °F 23.9 °F 30.2 °F 87% 29.85 in 7.0 mi SE 15.0 mph 23.0 mph N/A   Overcast
7:14 AM 33.8 °F 24.8 °F 30.2 °F 87% 29.84 in 7.0 mi SE 12.7 mph 19.6 mph N/A   Overcast
7:34 AM 33.8 °F 24.8 °F 30.2 °F 87% 29.84 in 7.0 mi SE 12.7 mph 19.6 mph N/A   Overcast
7:54 AM 33.8 °F 24.8 °F 30.2 °F 87% 29.84 in 7.0 mi SE 12.7 mph 19.6 mph N/A   Overcast
8:14 AM 33.8 °F 25.3 °F 30.2 °F 87% 29.84 in 7.0 mi SE 11.5 mph 18.4 mph N/A   Overcast
8:34 AM 33.8 °F 25.3 °F 30.2 °F 87% 29.84 in 5.0 mi SE 11.5 mph - N/A   Overcast
8:55 AM 33.8 °F 25.8 °F 30.2 °F 87% 29.84 in 5.0 mi SE 10.4 mph 17.3 mph N/A   Overcast
9:14 AM 33.8 °F 24.3 °F 30.2 °F 87% 29.83 in 5.0 mi SE 13.8 mph 17.3 mph N/A   Overcast
9:34 AM 33.8 °F 23.5 °F 30.2 °F 87% 29.82 in 5.0 mi SSE 16.1 mph - N/A   Overcast
9:54 AM 33.8 °F 24.3 °F 30.2 °F 87% 29.81 in 4.0 mi SE 13.8 mph - N/A   Overcast
10:35 AM 35.6 °F 26.2 °F 30.2 °F 81% 29.80 in 4.0 mi SSE 15.0 mph 20.7 mph N/A   Overcast
10:54 AM 35.6 °F 26.2 °F 30.2 °F 81% 29.80 in 5.0 mi SE 15.0 mph 19.6 mph N/A   Overcast
11:14 AM 35.6 °F 27.5 °F 30.2 °F 81% 29.80 in 5.0 mi SE 11.5 mph 20.7 mph N/A   Overcast
11:34 AM 35.6 °F 26.6 °F 30.2 °F 81% 29.78 in 4.0 mi SE 13.8 mph 20.7 mph N/A   Overcast
11:54 AM 35.6 °F 26.6 °F 30.2 °F 81% 29.77 in 5.0 mi SSE 13.8 mph 18.4 mph N/A   Overcast
12:15 PM 35.6 °F 26.6 °F 30.2 °F 81% 29.77 in 5.0 mi SE 13.8 mph 18.4 mph N/A   Overcast
12:34 PM 35.6 °F 27.1 °F 30.2 °F 81% 29.77 in 4.0 mi SE 12.7 mph - N/A   Overcast
12:54 PM 35.6 °F 28.0 °F 30.2 °F 81% 29.76 in 4.0 mi SE 10.4 mph 16.1 mph N/A   Overcast
1:14 PM 35.6 °F 29.2 °F 30.2 °F 81% 29.76 in 4.0 mi SE 8.1 mph - N/A   Overcast
1:35 PM 35.6 °F 28.6 °F 30.2 °F 81% 29.76 in 4.0 mi SSE 9.2 mph - N/A   Overcast
1:55 PM 35.6 °F 29.2 °F 32.0 °F 87% 29.75 in 4.0 mi SE 8.1 mph - N/A   Overcast
2:15 PM 35.6 °F 29.2 °F 32.0 °F 87% 29.75 in 3.0 mi SE 8.1 mph - N/A   Overcast
2:34 PM 35.6 °F 28.0 °F 30.2 °F 81% 29.74 in 3.0 mi SE 10.4 mph - N/A   Overcast
2:54 PM 35.6 °F 29.2 °F 32.0 °F 87% 29.73 in 3.0 mi SE 8.1 mph - N/A   Overcast
3:14 PM 35.6 °F 30.7 °F 32.0 °F 87% 29.75 in 3.0 mi ESE 5.8 mph - N/A   Overcast
3:34 PM 35.6 °F 31.7 °F 32.0 °F 87% 29.76 in 3.0 mi ESE 4.6 mph - N/A   Overcast
3:54 PM 35.6 °F 31.7 °F 32.0 °F 87% 29.76 in 2.5 mi ESE 4.6 mph - N/A   Overcast
4:15 PM 35.6 °F 30.7 °F 32.0 °F 87% 29.75 in 2.5 mi ESE 5.8 mph - N/A   Overcast
4:35 PM 35.6 °F 30.7 °F 32.0 °F 87% 29.76 in 2.0 mi ESE 5.8 mph - N/A   Overcast
4:55 PM 33.8 °F 29.6 °F 32.0 °F 93% 29.76 in 2.0 mi East 4.6 mph - N/A   Overcast
5:15 PM 33.8 °F 30.8 °F 32.0 °F 93% 29.78 in 3.0 mi NE 3.5 mph - N/A   Overcast
5:35 PM 33.8 °F 30.8 °F 32.0 °F 93% 29.80 in 2.5 mi NNE 3.5 mph - N/A   Overcast
5:54 PM 33.8 °F - 32.0 °F 93% 29.81 in 2.0 mi Calm Calm - N/A   Overcast
6:14 PM 33.8 °F - 32.0 °F 93% 29.82 in 1.5 mi Calm Calm - N/A   Overcast
6:35 PM 33.8 °F 30.8 °F 32.0 °F 93% 29.83 in 0.5 mi North 3.5 mph - N/A Fog Fog
6:55 PM 33.8 °F 30.8 °F 32.0 °F 93% 29.84 in 0.5 mi North 3.5 mph - N/A Fog Fog
7:14 PM 33.8 °F 30.8 °F 32.0 °F 93% 29.84 in 0.5 mi North 3.5 mph - N/A Fog Fog
7:34 PM 33.8 °F 29.6 °F 32.0 °F 93% 29.85 in 0.5 mi NNW 4.6 mph - N/A Fog Fog
7:54 PM 33.8 °F 30.8 °F 32.0 °F 93% 29.86 in 0.5 mi NW 3.5 mph - N/A Fog Fog
8:14 PM 33.8 °F 28.6 °F 32.0 °F 93% 29.87 in 0.5 mi NW 5.8 mph - N/A Fog Fog
8:34 PM 33.8 °F 27.0 °F 32.0 °F 93% 29.88 in 0.8 mi NW 8.1 mph - N/A   Overcast
8:55 PM 35.6 °F 25.2 °F 33.8 °F 93% 29.89 in 2.5 mi NNW 18.4 mph 25.3 mph N/A   Overcast
9:14 PM 35.6 °F 24.2 °F 33.8 °F 93% 29.90 in 7.0 mi NNW 21.9 mph 29.9 mph N/A   Overcast
9:34 PM 35.6 °F 23.4 °F 33.8 °F 93% 29.91 in 7.0 mi NNW 25.3 mph 29.9 mph N/A   Overcast
9:55 PM 33.8 °F 21.6 °F 32.0 °F 93% 29.92 in 7.0 mi NNW 23.0 mph 28.8 mph N/A   Overcast
10:14 PM 33.8 °F 21.6 °F 32.0 °F 93% 29.94 in 10.0 mi NNW 23.0 mph 29.9 mph N/A   Overcast
10:34 PM 33.8 °F 21.9 °F 32.0 °F 93% 29.95 in 10.0 mi NNW 21.9 mph 27.6 mph N/A   Overcast
10:55 PM 33.8 °F 22.5 °F 32.0 °F 93% 29.96 in 10.0 mi NNW 19.6 mph 32.2 mph N/A   Overcast
11:14 PM 33.8 °F 20.5 °F 32.0 °F 93% 29.98 in 10.0 mi NNW 27.6 mph 35.7 mph N/A   Overcast
11:34 PM 33.8 °F 20.3 °F 30.2 °F 87% 29.99 in 10.0 mi NNW 28.8 mph 32.2 mph N/A   Overcast
11:54 PM 33.8 °F 21.6 °F 30.2 °F 87% 30.00 in 10.0 mi NNW 23.0 mph 35.7 mph N/A   Overcast